Weather History for KAFP - March, 2013

Change the Weather History Date:

Thursday, March 14, 2013

  Actual Average (KCLT) Record (KCLT)
Temperature  
Mean Temperature 42 °F 51 °F  
Max Temperature 54 °F 62 °F 83 °F (2012)
Min Temperature 31 °F 39 °F 16 °F (1926)
Degree Days  
Heating Degree Days 22 15  
Month to date heating degree days 228  
Since 1 July heating degree days 2927  
Cooling Degree Days 0 0  
Month to date cooling degree days 0  
Year to date cooling degree days 0  
Moisture  
Dew Point 17 °F    
Average Humidity 41    
Maximum Humidity 74    
Minimum Humidity 18    
Precipitation  
Precipitation 0.00 in 0.14 in 1.81 in (1964)
Month to date precipitation 1.89  
Year to date precipitation 8.62  
Snow  
Snow 0.00 in 0.00 in 1.30 in (1924)
Month to date snowfall 0.4  
Since 1 July snowfall 4.1  
Snow Depth -    
Sea Level Pressure  
Sea Level Pressure 30.21 in    
Wind  
Wind Speed 6 mph (WNW)    
Max Wind Speed 13 mph    
Max Gust Speed 21 mph    
Visibility 10 miles    
Events      
T = Trace of Precipitation, MM = Missing Value Source: NWS Daily Summary

Daily Weather History Graph

Daily Weather History Graph

Search for Another Location

Airport or City:

Trip Planner

Search our weather history database for the weather conditions in past years. The results will help you decide how hot, cold, wet, or windy it might be!

Date:

Astronomy

Mar. 14, 2013 Rise Set
Actual Time 7:31 AM EDT 7:27 PM EDT
Civil Twilight 7:06 AM EDT 7:52 PM EDT
Nautical Twilight 6:37 AM EDT 8:21 PM EDT
Astronomical Twilight 6:07 AM EDT 8:51 PM EDT
Moon 8:53 AM EDT (3/14) 10:32 PM EDT (3/14)
Length of Visible Light 12h 45m
Length of Day
11h 55m
Waxing Crescent, 9% of the Moon is Illuminated
Mar 14
Waxing Crescent
Mar 19
First Quarter
Mar 27
Full
Apr 3
Last Quarter
Apr 10
New

Hourly Weather History & Observations

Time (EDT) Temp. Windchill Dew Point Humidity Pressure Visibility Wind Dir Wind Speed Gust Speed Precip Events Conditions
12:15 AM 38.7 °F 34.3 °F 17.6 °F 43% 30.17 in 10.0 mi NW 5.8 mph - N/A   Clear
12:35 AM 38.7 °F 32.9 °F 17.6 °F 43% 30.16 in 10.0 mi NW 8.1 mph - N/A   Clear
12:55 AM 37.9 °F 32.1 °F 18.0 °F 45% 30.17 in 10.0 mi NW 8.1 mph - N/A   Clear
1:15 AM 37.9 °F 31.5 °F 17.6 °F 44% 30.17 in 10.0 mi NW 9.2 mph - N/A   Clear
1:35 AM 37.6 °F 31.0 °F 17.1 °F 43% 30.17 in 10.0 mi NW 9.2 mph - N/A   Clear
1:55 AM 36.0 °F 32.1 °F 18.0 °F 48% 30.18 in 10.0 mi NNW 4.6 mph - N/A   Clear
2:15 AM 35.6 °F 31.7 °F 17.4 °F 48% 30.18 in 10.0 mi NW 4.6 mph - N/A   Clear
2:55 AM 33.8 °F 29.6 °F 17.6 °F 52% 30.19 in 10.0 mi NNW 4.6 mph - N/A   Clear
3:15 AM 35.1 °F 30.1 °F 16.2 °F 46% 30.19 in 10.0 mi NNW 5.8 mph - N/A   Clear
3:35 AM 34.5 °F 28.6 °F 16.5 °F 48% 30.20 in 10.0 mi NW 6.9 mph - N/A   Clear
3:55 AM 34.2 °F 30.0 °F 15.8 °F 47% 30.20 in 10.0 mi NW 4.6 mph - N/A   Clear
4:15 AM 32.5 °F 29.3 °F 17.1 °F 53% 30.20 in 10.0 mi NW 3.5 mph - N/A   Clear
4:35 AM 32.7 °F 25.7 °F 16.9 °F 52% 30.20 in 10.0 mi North 8.1 mph - N/A   Clear
4:55 AM 33.6 °F 30.6 °F 15.4 °F 47% 30.20 in 10.0 mi North 3.5 mph - N/A   Clear
5:15 AM 32.7 °F 26.4 °F 16.0 °F 50% 30.20 in 10.0 mi NNW 6.9 mph - N/A   Clear
5:35 AM 33.3 °F 26.4 °F 15.4 °F 48% 30.21 in 10.0 mi NNW 8.1 mph - N/A   Clear
5:55 AM 32.9 °F 25.9 °F 15.1 °F 48% 30.21 in 10.0 mi North 8.1 mph - N/A   Clear
6:15 AM 33.8 °F 27.0 °F 14.5 °F 45% 30.23 in 10.0 mi NNW 8.1 mph 17.3 mph N/A   Clear
6:35 AM 32.0 °F 24.8 °F 15.3 °F 50% 30.24 in 10.0 mi NW 8.1 mph - N/A   Clear
6:55 AM 32.0 °F 28.7 °F 15.1 °F 50% 30.25 in 10.0 mi NW 3.5 mph - N/A   Clear
7:15 AM 32.0 °F 28.7 °F 14.7 °F 49% 30.25 in 10.0 mi WNW 3.5 mph - N/A   Clear
7:35 AM 31.6 °F - 14.9 °F 50% 30.25 in 10.0 mi Calm Calm - N/A   Clear
7:55 AM 32.2 °F 27.7 °F 14.9 °F 49% 30.26 in 10.0 mi WNW 4.6 mph - N/A   Clear
8:15 AM 32.9 °F 28.5 °F 15.6 °F 49% 30.27 in 10.0 mi WNW 4.6 mph - N/A   Clear
8:35 AM 33.8 °F - 15.6 °F 47% 30.27 in 10.0 mi Calm Calm - N/A   Clear
8:55 AM 35.6 °F 30.7 °F 15.4 °F 44% 30.27 in 10.0 mi WNW 5.8 mph - N/A   Clear
9:15 AM 36.7 °F 31.2 °F 15.3 °F 42% 30.28 in 10.0 mi WNW 6.9 mph - N/A   Clear
9:35 AM 38.3 °F 32.5 °F 14.5 °F 38% 30.29 in 10.0 mi WNW 8.1 mph 20.7 mph N/A   Clear
9:55 AM 39.2 °F 31.6 °F 14.7 °F 37% 30.29 in 10.0 mi WNW 12.7 mph 18.4 mph N/A   Clear
10:15 AM 40.1 °F 33.6 °F 14.0 °F 35% 30.29 in 10.0 mi WNW 10.4 mph - N/A   Clear
10:35 AM 41.2 °F 34.1 °F 13.6 °F 33% 30.29 in 10.0 mi NW 12.7 mph 16.1 mph N/A   Clear
10:55 AM 42.6 °F 35.9 °F 13.5 °F 31% 30.29 in 10.0 mi NNW 12.7 mph - N/A   Clear
11:15 AM 43.0 °F 36.8 °F 13.5 °F 30% 30.29 in 10.0 mi NW 11.5 mph 18.4 mph N/A   Clear
11:35 AM 43.7 °F 39.7 °F 13.1 °F 29% 30.28 in 10.0 mi WNW 6.9 mph - N/A   Clear
11:55 AM 44.2 °F 39.7 °F 13.5 °F 29% 30.27 in 10.0 mi North 8.1 mph - N/A   Clear
12:15 PM 45.5 °F 41.8 °F 13.6 °F 28% 30.27 in 10.0 mi WNW 6.9 mph 17.3 mph N/A   Clear
12:35 PM 46.6 °F - 13.5 °F 26% 30.26 in 10.0 mi WNW 8.1 mph - N/A   Clear
12:55 PM 46.6 °F - 13.5 °F 26% 30.25 in 10.0 mi NW 8.1 mph - N/A   Clear
1:15 PM 47.8 °F - 12.6 °F 24% 30.25 in 10.0 mi West 9.2 mph - N/A   Clear
1:35 PM 48.6 °F - 14.0 °F 25% 30.24 in 10.0 mi West 8.1 mph - N/A   Clear
1:55 PM 49.1 °F - 13.6 °F 24% 30.23 in 10.0 mi NW 8.1 mph - N/A   Clear
2:15 PM 50.2 °F - 13.5 °F 23% 30.22 in 10.0 mi NW 6.9 mph 17.3 mph N/A   Clear
2:35 PM 52.0 °F - 14.2 °F 22% 30.21 in 10.0 mi WNW 8.1 mph 16.1 mph N/A   Clear
2:55 PM 51.8 °F - 13.6 °F 22% 30.20 in 10.0 mi NW 4.6 mph 18.4 mph N/A   Clear
3:15 PM 53.2 °F - 13.8 °F 21% 30.20 in 10.0 mi NW 11.5 mph 16.1 mph N/A   Clear
3:35 PM 52.7 °F - 13.6 °F 21% 30.19 in 10.0 mi West 6.9 mph - N/A   Clear
3:55 PM 53.2 °F - 12.9 °F 20% 30.18 in 10.0 mi West 5.8 mph - N/A   Clear
4:15 PM 52.9 °F - 12.2 °F 20% 30.18 in 10.0 mi WSW 3.5 mph - N/A   Clear
4:35 PM 53.2 °F - 13.6 °F 21% 30.17 in 10.0 mi WNW 6.9 mph - N/A   Clear
4:55 PM 52.3 °F - 13.5 °F 21% 30.16 in 10.0 mi West 4.6 mph - N/A   Clear
5:15 PM 54.0 °F - 13.3 °F 20% 30.16 in 10.0 mi WNW 8.1 mph - N/A   Clear
5:35 PM 53.4 °F - 12.0 °F 19% 30.15 in 10.0 mi West 6.9 mph - N/A   Clear
5:55 PM 53.1 °F - 10.8 °F 18% 30.15 in 10.0 mi West 5.8 mph - N/A   Clear
6:15 PM 52.7 °F - 11.3 °F 19% 30.15 in 10.0 mi WNW 6.9 mph - N/A   Clear
6:35 PM 51.3 °F - 11.7 °F 21% 30.16 in 10.0 mi West 4.6 mph - N/A   Clear
6:55 PM 50.5 °F - 12.6 °F 22% 30.16 in 10.0 mi Calm Calm - N/A   Clear
7:15 PM 48.9 °F - 15.6 °F 27% 30.16 in 10.0 mi Calm Calm - N/A   Clear
7:35 PM 47.3 °F - 18.3 °F 32% 30.16 in 10.0 mi Calm Calm - N/A   Clear
7:55 PM 41.2 °F - 23.9 °F 50% 30.16 in 10.0 mi Calm Calm - N/A   Clear
8:15 PM 41.9 °F - 25.0 °F 51% 30.16 in 10.0 mi Calm Calm - N/A   Clear
8:35 PM 38.7 °F - 27.0 °F 63% 30.16 in 10.0 mi Calm Calm - N/A   Clear
8:55 PM 39.4 °F 37.2 °F 27.3 °F 62% 30.16 in 10.0 mi SSW 3.5 mph - N/A   Clear
9:15 PM 38.7 °F 35.2 °F 27.5 °F 64% 30.17 in 10.0 mi SSW 4.6 mph - N/A   Clear
9:35 PM 37.0 °F - 28.6 °F 71% 30.16 in 10.0 mi Calm Calm - N/A   Clear
9:55 PM 37.0 °F 33.3 °F 27.7 °F 69% 30.16 in 10.0 mi SSW 4.6 mph - N/A   Clear
10:15 PM 37.6 °F 34.0 °F 26.1 °F 63% 30.17 in 10.0 mi SSW 4.6 mph - N/A   Clear
10:35 PM 36.0 °F - 28.0 °F 73% 30.18 in 10.0 mi Calm Calm - N/A   Clear
10:55 PM 35.6 °F - 27.5 °F 72% 30.18 in 10.0 mi Calm Calm - N/A   Clear
11:15 PM 35.4 °F 32.6 °F 25.9 °F 68% 30.18 in 10.0 mi SW 3.5 mph - N/A   Clear
11:35 PM 33.6 °F - 25.9 °F 73% 30.18 in 10.0 mi Calm Calm - N/A   Clear
11:55 PM 33.8 °F - 26.4 °F 74% 30.19 in 10.0 mi Calm Calm - N/A   Clear